WBANNO,USDM_WEEK,LONGITUDE,LATITUDE,SMVWC_5_CM_MEAN,SMANOM_5_CM_MEAN,SMPERC_5_CM_30COUNTS,SMPERC_5_CM_70COUNTS,SMVWC_10_CM_MEAN,SMANOM_10_CM_MEAN,SMPERC_10_CM_30COUNTS,SMPERC_10_CM_70COUNTS,SMVWC_20_CM_MEAN,SMANOM_20_CM_MEAN,SMPERC_20_CM_30COUNTS,SMPERC_20_CM_70COUNTS,SMVWC_50_CM_MEAN,SMANOM_50_CM_MEAN,SMPERC_50_CM_30COUNTS,SMPERC_50_CM_70COUNTS,SMVWC_100_CM_MEAN,SMANOM_100_CM_MEAN,SMPERC_100_CM_30COUNTS,SMPERC_100_CM_70COUNTS,SMVWC_TOP_CM_MEAN,SMANOM_TOP_CM_MEAN,SMPERC_TOP_CM_30COUNTS,SMPERC_TOP_CM_70COUNTS,SMVWC_COLUMN_CM_MEAN,SMANOM_COLUMN_CM_MEAN,SMPERC_COLUMN_CM_30COUNTS,SMPERC_COLUMN_CM_70COUNTS
03728,20090430,-79.36,33.15,,,,,,,,,,,,,,,,,,,,,,,,,,,,
03728,20090501,-79.36,33.15,,,,,,,,,,,,,,,,,,,,,,,,,,,,
03728,20090502,-79.36,33.15,,,,,,,,,,,,,,,,,,,,,,,,,,,,
03728,20090503,-79.36,33.15,,,,,,,,,,,,,,,,,,,,,,,,,,,,
03728,20090504,-79.36,33.15,,,,,,,,,,,,,,,,,,,,,,,,,,,,
03728,20090505,-79.36,33.15,0.03,-0.62,1,0,0.054,-0.55,1,0,0.088,-0.34,0.518,0,0.17,-0.16,0.657,0,0.361,-0.37,1,0,0.042,-0.58,1,0,0.141,-0.45,1,0
03728,20090506,-79.36,33.15,0.03,-0.62,1,0,0.054,-0.55,1,0,0.088,-0.34,0.571,0,0.17,-0.16,0.584,0,0.361,-0.37,1,0,0.042,-0.58,1,0,0.14,-0.45,1,0
03728,20090507,-79.36,33.15,0.03,-0.62,1,0,0.054,-0.54,1,0,0.087,-0.34,0.613,0,0.169,-0.16,0.536,0,0.361,-0.37,1,0,0.042,-0.58,1,0,0.14,-0.45,1,0
03728,20090508,-79.36,33.15,0.03,-0.61,1,0,0.054,-0.54,1,0,0.086,-0.35,0.72,0,0.168,-0.15,0.446,0,0.361,-0.37,1,0,0.042,-0.57,1,0,0.14,-0.44,1,0
03728,20090509,-79.36,33.15,0.03,-0.61,1,0,0.054,-0.55,1,0,0.085,-0.36,0.827,0,0.167,-0.15,0.458,0,0.361,-0.37,1,0,0.042,-0.57,1,0,0.139,-0.44,1,0
03728,20090510,-79.36,33.15,0.03,-0.61,1,0,0.053,-0.56,1,0,0.083,-0.38,0.875,0,0.166,-0.15,0.458,0,0.361,-0.38,1,0,0.041,-0.58,1,0,0.139,-0.45,1,0
03728,20090511,-79.36,33.15,0.029,-0.62,1,0,0.052,-0.56,1,0,0.084,-0.35,0.869,0,0.164,-0.16,0.554,0,0.361,-0.38,1,0,0.041,-0.59,1,0,0.138,-0.45,1,0
03728,20090512,-79.36,33.15,0.029,-0.62,1,0,0.053,-0.56,0.887,0,0.086,-0.31,0.726,0,0.163,-0.16,0.649,0,0.361,-0.39,1,0,0.041,-0.58,1,0,0.139,-0.43,1,0
03728,20090513,-79.36,33.15,0.029,-0.61,1,0,0.054,-0.54,0.75,0,0.088,-0.28,0.601,0,0.162,-0.16,0.744,0,0.361,-0.41,1,0,0.042,-0.57,1,0,0.139,-0.42,0.988,0
03728,20090514,-79.36,33.15,0.029,-0.61,1,0,0.056,-0.52,0.607,0,0.089,-0.25,0.476,0,0.161,-0.16,0.81,0,0.362,-0.45,1,0,0.042,-0.56,1,0,0.139,-0.41,0.982,0
03728,20090515,-79.36,33.15,0.03,-0.6,1,0,0.057,-0.5,0.464,0,0.09,-0.23,0.333,0,0.16,-0.16,0.833,0,0.362,-0.5,1,0,0.043,-0.54,0.988,0,0.14,-0.4,0.935,0
03728,20090516,-79.36,33.15,0.032,-0.57,0.946,0,0.063,-0.43,0.321,0,0.095,-0.14,0.196,0.03,0.159,-0.16,0.78,0,0.362,-0.56,1,0,0.047,-0.49,0.863,0,0.142,-0.36,0.804,0
03728,20090517,-79.36,33.15,0.035,-0.54,0.923,0,0.068,-0.36,0.179,0,0.099,-0.07,0.054,0.03,0.159,-0.16,0.667,0,0.363,-0.61,1,0,0.051,-0.44,0.72,0,0.145,-0.31,0.661,0
03728,20090518,-79.36,33.15,0.04,-0.48,0.821,0,0.076,-0.25,0.036,0.024,0.104,0.01,0,0.131,0.161,-0.14,0.536,0,0.364,-0.67,1,0,0.058,-0.36,0.577,0,0.149,-0.25,0.518,0
03728,20090519,-79.36,33.15,0.046,-0.41,0.679,0,0.083,-0.16,0.006,0.024,0.107,0.08,0,0.22,0.163,-0.11,0.399,0,0.364,-0.72,1,0,0.065,-0.28,0.435,0,0.153,-0.19,0.375,0
03728,20090520,-79.36,33.15,0.051,-0.35,0.536,0,0.089,-0.08,0,0.024,0.109,0.13,0,0.22,0.165,-0.08,0.28,0,0.365,-0.75,1,0,0.07,-0.21,0.292,0,0.156,-0.14,0.244,0
03728,20090521,-79.36,33.15,0.056,-0.3,0.393,0,0.095,-0.01,0,0.024,0.112,0.17,0,0.22,0.167,-0.06,0.137,0,0.365,-0.76,1,0,0.075,-0.15,0.149,0,0.159,-0.09,0.107,0
03728,20090522,-79.36,33.15,0.06,-0.26,0.25,0,0.099,0.05,0,0.024,0.114,0.21,0,0.22,0.168,-0.04,0.06,0,0.366,-0.74,1,0,0.08,-0.1,0.018,0,0.161,-0.05,0.012,0
03728,20090523,-79.36,33.15,0.062,-0.24,0.185,0,0.101,0.06,0,0.024,0.111,0.18,0,0.19,0.169,-0.02,0,0,0.367,-0.72,1,0,0.081,-0.09,0,0,0.162,-0.04,0,0
03728,20090524,-79.36,33.15,0.066,-0.2,0.065,0,0.103,0.09,0,0.024,0.112,0.18,0,0.19,0.17,-0.02,0,0,0.367,-0.69,1,0,0.085,-0.05,0,0,0.164,-0.01,0,0
03728,20090525,-79.36,33.15,0.07,-0.16,0.024,0,0.104,0.1,0,0,0.11,0.16,0,0.113,0.169,-0.02,0,0,0.368,-0.65,1,0,0.087,-0.03,0,0,0.164,0,0,0
03728,20090526,-79.36,33.15,0.07,-0.16,0.024,0,0.103,0.09,0,0,0.108,0.11,0,0.024,0.168,-0.04,0,0,0.368,-0.61,1,0,0.087,-0.03,0,0,0.164,-0.01,0,0
03728,20090527,-79.36,33.15,0.072,-0.15,0.024,0,0.103,0.08,0,0,0.106,0.08,0,0.024,0.167,-0.05,0,0,0.369,-0.57,1,0,0.087,-0.03,0,0,0.163,-0.02,0,0
03728,20090528,-79.36,33.15,0.073,-0.16,0.048,0,0.103,0.07,0,0,0.105,0.05,0,0.024,0.166,-0.07,0,0,0.369,-0.53,1,0,0.088,-0.04,0,0,0.163,-0.03,0,0
03728,20090529,-79.36,33.15,0.073,-0.17,0.185,0,0.102,0.05,0,0,0.104,0.02,0,0.024,0.165,-0.09,0,0,0.37,-0.5,1,0,0.087,-0.06,0,0,0.163,-0.04,0,0
03728,20090530,-79.36,33.15,0.074,-0.17,0.226,0,0.102,0.05,0,0,0.105,0.02,0,0.024,0.164,-0.1,0.006,0,0.37,-0.46,0.982,0,0.088,-0.06,0.006,0,0.163,-0.04,0,0
03728,20090531,-79.36,33.15,0.073,-0.19,0.226,0,0.103,0.04,0,0,0.104,0.01,0,0.024,0.164,-0.12,0.065,0,0.37,-0.43,0.935,0,0.088,-0.07,0.006,0,0.163,-0.05,0,0
03728,20090601,-79.36,33.15,0.069,-0.24,0.339,0,0.1,0.01,0,0,0.102,-0.05,0,0,0.163,-0.14,0.173,0,0.37,-0.41,0.81,0,0.085,-0.12,0.006,0,0.161,-0.08,0,0
03728,20090602,-79.36,33.15,0.066,-0.3,0.482,0,0.098,-0.04,0,0,0.099,-0.1,0.024,0,0.162,-0.17,0.31,0,0.371,-0.39,0.667,0,0.082,-0.17,0.107,0,0.159,-0.11,0,0
03728,20090603,-79.36,33.15,0.061,-0.36,0.625,0,0.094,-0.1,0.048,0,0.097,-0.15,0.143,0,0.161,-0.19,0.452,0,0.371,-0.37,0.524,0,0.078,-0.23,0.25,0,0.157,-0.15,0.06,0
03728,20090604,-79.36,33.15,0.058,-0.42,0.744,0,0.089,-0.17,0.19,0,0.094,-0.2,0.286,0,0.16,-0.22,0.595,0,0.371,-0.35,0.381,0,0.073,-0.29,0.393,0,0.154,-0.19,0.202,0
03728,20090605,-79.36,33.15,0.056,-0.44,0.696,0,0.084,-0.23,0.333,0,0.092,-0.23,0.393,0,0.159,-0.24,0.738,0,0.371,-0.34,0.238,0,0.07,-0.33,0.524,0,0.153,-0.21,0.286,0
03728,20090606,-79.36,33.15,0.056,-0.43,0.655,0,0.081,-0.27,0.375,0.012,0.092,-0.23,0.393,0.03,0.159,-0.26,0.875,0,0.372,-0.32,0.113,0,0.069,-0.35,0.56,0.006,0.152,-0.22,0.286,0
03728,20090607,-79.36,33.15,0.059,-0.39,0.655,0.006,0.083,-0.23,0.375,0.077,0.097,-0.14,0.393,0.173,0.159,-0.25,0.869,0,0.372,-0.29,0.018,0,0.071,-0.31,0.56,0.024,0.154,-0.18,0.286,0.012
03728,20090608,-79.36,33.15,0.062,-0.34,0.542,0.006,0.086,-0.18,0.375,0.119,0.1,-0.08,0.393,0.22,0.162,-0.21,0.762,0,0.373,-0.26,0,0,0.074,-0.26,0.56,0.024,0.156,-0.14,0.286,0.012
03728,20090609,-79.36,33.15,0.064,-0.31,0.399,0.006,0.089,-0.12,0.375,0.119,0.102,-0.03,0.369,0.22,0.163,-0.18,0.625,0,0.373,-0.23,0,0,0.077,-0.21,0.458,0.024,0.158,-0.1,0.286,0.012
03728,20090610,-79.36,33.15,0.066,-0.27,0.268,0.006,0.093,-0.07,0.327,0.119,0.104,0.02,0.25,0.22,0.165,-0.15,0.482,0,0.374,-0.2,0,0,0.079,-0.17,0.315,0.024,0.16,-0.07,0.226,0.012
03728,20090611,-79.36,33.15,0.068,-0.24,0.143,0.006,0.096,0,0.185,0.119,0.106,0.07,0.107,0.22,0.166,-0.13,0.339,0,0.375,-0.17,0,0,0.082,-0.12,0.173,0.024,0.162,-0.03,0.083,0.012
03728,20090612,-79.36,33.15,0.069,-0.21,0.107,0.006,0.099,0.06,0.042,0.119,0.108,0.12,0,0.22,0.167,-0.1,0.196,0,0.375,-0.15,0,0,0.084,-0.07,0.042,0.024,0.164,0,0,0.012
03728,20090613,-79.36,33.15,0.072,-0.16,0.083,0.024,0.104,0.14,0,0.179,0.111,0.17,0,0.262,0.169,-0.06,0.054,0,0.376,-0.12,0,0,0.088,-0.01,0,0.071,0.166,0.06,0,0.065
03728,20090614,-79.36,33.15,0.073,-0.14,0.083,0.036,0.105,0.16,0,0.256,0.109,0.14,0,0.238,0.171,-0.02,0,0,0.376,-0.11,0,0,0.089,0.02,0,0.107,0.167,0.08,0,0.083
03728,20090615,-79.36,33.15,0.074,-0.12,0.083,0.036,0.105,0.16,0,0.28,0.108,0.13,0,0.19,0.171,-0.01,0,0,0.376,-0.09,0,0,0.09,0.03,0,0.107,0.167,0.09,0,0.083
03728,20090616,-79.36,33.15,0.076,-0.07,0.083,0.065,0.106,0.19,0,0.31,0.109,0.15,0,0.22,0.171,0.01,0,0,0.377,-0.08,0,0,0.091,0.06,0,0.137,0.168,0.12,0,0.113
03728,20090617,-79.36,33.15,0.083,0.03,0.071,0.095,0.111,0.25,0,0.452,0.113,0.22,0,0.363,0.173,0.06,0,0.012,0.377,-0.07,0,0,0.097,0.15,0,0.28,0.171,0.19,0,0.256
03728,20090618,-79.36,33.15,0.089,0.11,0.054,0.095,0.115,0.32,0,0.565,0.116,0.27,0,0.369,0.174,0.1,0,0.012,0.377,-0.07,0,0,0.102,0.22,0,0.321,0.174,0.25,0,0.292
03728,20090619,-79.36,33.15,0.093,0.17,0,0.095,0.12,0.37,0,0.601,0.117,0.29,0,0.369,0.176,0.15,0,0.012,0.377,-0.06,0,0,0.106,0.28,0,0.321,0.177,0.3,0,0.292
03728,20090620,-79.36,33.15,0.092,0.15,0,0.077,0.118,0.36,0,0.53,0.114,0.25,0,0.298,0.176,0.17,0,0.012,0.377,-0.06,0,0,0.105,0.26,0,0.268,0.176,0.29,0,0.238
03728,20090621,-79.36,33.15,0.086,0.08,0,0.06,0.113,0.29,0,0.387,0.111,0.19,0,0.179,0.175,0.16,0,0.012,0.377,-0.06,0,0,0.1,0.19,0,0.214,0.173,0.24,0,0.208
03728,20090622,-79.36,33.15,0.082,0.01,0.077,0.06,0.108,0.22,0,0.321,0.108,0.14,0,0.179,0.175,0.15,0,0.012,0.377,-0.07,0,0,0.095,0.12,0,0.214,0.17,0.19,0,0.208
03728,20090623,-79.36,33.15,0.076,-0.07,0.22,0.03,0.101,0.13,0,0.292,0.104,0.08,0,0.149,0.174,0.14,0,0.012,0.377,-0.07,0,0,0.088,0.03,0.083,0.185,0.166,0.13,0,0.179
03728,20090624,-79.36,33.15,0.066,-0.2,0.363,0,0.09,-0.02,0.107,0.149,0.097,-0.02,0,0.006,0.172,0.11,0,0,0.377,-0.07,0,0,0.078,-0.11,0.226,0.042,0.16,0.02,0.012,0.036
03728,20090625,-79.36,33.15,0.058,-0.31,0.506,0,0.079,-0.15,0.25,0.036,0.091,-0.11,0.018,0,0.17,0.07,0,0,0.376,-0.07,0,0,0.069,-0.23,0.369,0,0.155,-0.08,0.125,0
03728,20090626,-79.36,33.15,0.05,-0.41,0.631,0,0.07,-0.27,0.375,0,0.086,-0.19,0.095,0.012,0.168,0.03,0,0,0.376,-0.06,0,0,0.06,-0.34,0.494,0,0.15,-0.17,0.25,0
03728,20090627,-79.36,33.15,0.047,-0.44,0.631,0,0.067,-0.3,0.375,0,0.087,-0.17,0.095,0.042,0.166,0,0,0,0.376,-0.06,0,0,0.057,-0.37,0.494,0,0.149,-0.19,0.25,0
03728,20090628,-79.36,33.15,0.045,-0.47,0.756,0,0.064,-0.33,0.375,0,0.086,-0.18,0.095,0.042,0.165,-0.02,0,0,0.376,-0.05,0,0,0.055,-0.4,0.494,0,0.147,-0.22,0.25,0
03728,20090629,-79.36,33.15,0.043,-0.48,0.821,0,0.061,-0.37,0.387,0,0.084,-0.2,0.095,0.042,0.164,-0.05,0,0,0.376,-0.04,0,0,0.052,-0.43,0.607,0,0.146,-0.24,0.25,0
03728,20090630,-79.36,33.15,0.044,-0.46,0.75,0,0.061,-0.35,0.452,0,0.085,-0.18,0.095,0.071,0.163,-0.08,0,0,0.376,-0.04,0,0,0.053,-0.41,0.595,0,0.146,-0.23,0.256,0
03728,20090701,-79.36,33.15,0.046,-0.42,0.607,0,0.065,-0.3,0.345,0,0.088,-0.13,0.095,0.071,0.162,-0.1,0,0,0.376,-0.03,0,0,0.055,-0.36,0.452,0,0.147,-0.19,0.244,0
03728,20090702,-79.36,33.15,0.047,-0.4,0.56,0,0.067,-0.26,0.202,0,0.09,-0.1,0.077,0.071,0.161,-0.11,0,0,0.377,-0.02,0,0,0.057,-0.33,0.31,0,0.148,-0.16,0.131,0
03728,20090703,-79.36,33.15,0.047,-0.4,0.577,0,0.066,-0.26,0.161,0,0.09,-0.1,0,0.06,0.161,-0.13,0,0,0.377,-0.01,0,0,0.057,-0.32,0.304,0,0.148,-0.15,0.012,0
03728,20090704,-79.36,33.15,0.044,-0.43,0.72,0,0.06,-0.34,0.304,0,0.082,-0.2,0.119,0.03,0.159,-0.17,0.054,0,0.377,-0.01,0,0,0.052,-0.38,0.446,0,0.144,-0.21,0.131,0
03728,20090705,-79.36,33.15,0.043,-0.45,0.738,0,0.055,-0.4,0.446,0,0.075,-0.3,0.262,0.03,0.157,-0.22,0.19,0,0.377,0,0,0,0.049,-0.42,0.589,0,0.141,-0.26,0.274,0
03728,20090706,-79.36,33.15,0.044,-0.44,0.69,0,0.054,-0.4,0.53,0,0.073,-0.32,0.357,0.071,0.155,-0.28,0.333,0,0.377,0.01,0,0,0.049,-0.41,0.571,0,0.141,-0.26,0.369,0
03728,20090707,-79.36,33.15,0.045,-0.41,0.619,0,0.057,-0.37,0.464,0,0.075,-0.28,0.357,0.06,0.154,-0.31,0.464,0,0.377,0.01,0,0,0.051,-0.38,0.5,0,0.142,-0.24,0.363,0
03728,20090708,-79.36,33.15,0.049,-0.37,0.619,0,0.059,-0.33,0.464,0.006,0.078,-0.24,0.357,0.155,0.154,-0.32,0.512,0,0.377,0.02,0,0,0.054,-0.34,0.5,0.006,0.144,-0.2,0.363,0.03
03728,20090709,-79.36,33.15,0.055,-0.3,0.524,0,0.065,-0.26,0.464,0.006,0.083,-0.17,0.357,0.208,0.155,-0.26,0.512,0.024,0.378,0.03,0,0,0.06,-0.27,0.5,0.006,0.147,-0.13,0.363,0.042
03728,20090710,-79.36,33.15,0.06,-0.24,0.381,0,0.072,-0.17,0.381,0.006,0.089,-0.08,0.357,0.226,0.156,-0.19,0.512,0.155,0.378,0.05,0,0,0.066,-0.19,0.381,0.006,0.151,-0.05,0.357,0.048
03728,20090711,-79.36,33.15,0.064,-0.19,0.238,0,0.08,-0.08,0.238,0.006,0.095,0.01,0.238,0.226,0.158,-0.12,0.458,0.185,0.378,0.06,0,0,0.072,-0.12,0.238,0.006,0.155,0.02,0.238,0.048
03728,20090712,-79.36,33.15,0.067,-0.17,0.179,0,0.087,0.01,0.095,0.006,0.103,0.12,0.095,0.226,0.16,-0.05,0.321,0.185,0.378,0.07,0,0,0.077,-0.06,0.095,0.006,0.159,0.1,0.095,0.048
03728,20090713,-79.36,33.15,0.067,-0.18,0.226,0,0.09,0.04,0,0.006,0.106,0.16,0,0.185,0.162,0.02,0.179,0.185,0.378,0.09,0,0.065,0.078,-0.05,0.03,0.006,0.161,0.13,0,0.048
03728,20090714,-79.36,33.15,0.066,-0.21,0.292,0,0.087,0,0,0.006,0.102,0.09,0,0.167,0.163,0.07,0.048,0.185,0.378,0.11,0,0.149,0.076,-0.1,0.065,0.006,0.159,0.1,0,0.048
03728,20090715,-79.36,33.15,0.063,-0.26,0.333,0,0.081,-0.08,0,0,0.096,0.01,0,0.071,0.163,0.08,0,0.185,0.377,0.12,0,0.238,0.072,-0.16,0.065,0,0.156,0.05,0,0.018
03728,20090716,-79.36,33.15,0.058,-0.33,0.47,0,0.075,-0.17,0.054,0,0.09,-0.08,0,0.018,0.162,0.03,0,0.161,0.376,0.13,0,0.298,0.067,-0.24,0.179,0,0.152,-0.01,0,0.006
03728,20090717,-79.36,33.15,0.055,-0.38,0.542,0,0.068,-0.26,0.185,0,0.084,-0.18,0.083,0,0.16,-0.03,0,0.03,0.373,0.14,0,0.315,0.062,-0.31,0.256,0,0.148,-0.08,0,0
03728,20090718,-79.36,33.15,0.055,-0.39,0.548,0,0.063,-0.34,0.315,0,0.078,-0.26,0.173,0,0.157,-0.08,0,0,0.37,0.14,0,0.315,0.059,-0.36,0.298,0,0.145,-0.13,0,0
03728,20090719,-79.36,33.15,0.055,-0.39,0.601,0,0.058,-0.41,0.458,0,0.074,-0.33,0.315,0,0.156,-0.13,0,0,0.366,0.13,0,0.315,0.057,-0.4,0.44,0,0.142,-0.17,0,0
03728,20090720,-79.36,33.15,0.055,-0.4,0.601,0,0.054,-0.47,0.601,0,0.069,-0.4,0.458,0,0.154,-0.17,0.024,0,0.36,0.11,0,0.25,0.054,-0.43,0.554,0,0.138,-0.21,0,0
03728,20090721,-79.36,33.15,0.053,-0.43,0.679,0,0.05,-0.52,0.744,0,0.064,-0.47,0.601,0,0.152,-0.2,0.125,0,0.354,0.08,0,0.167,0.052,-0.47,0.661,0,0.135,-0.25,0.036,0
03728,20090722,-79.36,33.15,0.05,-0.47,0.78,0,0.047,-0.57,0.887,0,0.058,-0.56,0.744,0,0.15,-0.23,0.268,0,0.348,0.04,0,0.077,0.048,-0.52,0.804,0,0.131,-0.3,0.179,0
03728,20090723,-79.36,33.15,0.048,-0.51,0.786,0,0.044,-0.61,0.976,0,0.053,-0.65,0.887,0,0.148,-0.27,0.411,0,0.341,-0.01,0,0.018,0.046,-0.56,0.833,0,0.127,-0.34,0.321,0
03728,20090724,-79.36,33.15,0.044,-0.56,0.857,0,0.041,-0.66,0.988,0,0.047,-0.73,0.946,0,0.146,-0.3,0.554,0,0.332,-0.06,0,0,0.042,-0.62,0.899,0,0.122,-0.39,0.464,0
03728,20090725,-79.36,33.15,0.039,-0.63,0.994,0,0.037,-0.71,1,0,0.042,-0.82,1,0,0.143,-0.34,0.696,0,0.322,-0.13,0,0,0.038,-0.68,1,0,0.117,-0.45,0.607,0
03728,20090726,-79.36,33.15,0.036,-0.68,1,0,0.034,-0.76,1,0,0.036,-0.9,1,0,0.14,-0.39,0.839,0,0.31,-0.21,0,0,0.035,-0.73,1,0,0.111,-0.52,0.75,0
03728,20090727,-79.36,33.15,0.033,-0.72,1,0,0.031,-0.8,1,0,0.031,-0.98,1,0,0.137,-0.44,0.958,0,0.296,-0.31,0.125,0,0.032,-0.77,1,0,0.106,-0.58,0.893,0
03728,20090728,-79.36,33.15,0.031,-0.76,1,0,0.029,-0.83,1,0,0.027,-1.04,1,0,0.132,-0.5,1,0,0.281,-0.4,0.268,0,0.03,-0.81,1,0,0.1,-0.64,1,0
03728,20090729,-79.36,33.15,0.029,-0.79,1,0,0.027,-0.86,1,0,0.023,-1.09,1,0,0.128,-0.55,1,0,0.264,-0.5,0.411,0,0.028,-0.84,1,0,0.094,-0.7,1,0
03728,20090730,-79.36,33.15,0.028,-0.81,1,0,0.025,-0.89,1,0,0.021,-1.13,1,0,0.124,-0.61,1,0,0.248,-0.6,0.554,0,0.026,-0.86,1,0,0.089,-0.75,1,0
03728,20090731,-79.36,33.15,0.029,-0.81,1,0,0.024,-0.9,1,0,0.018,-1.15,1,0,0.12,-0.65,1,0,0.232,-0.69,0.696,0,0.026,-0.87,1,0,0.085,-0.79,1,0
03728,20090801,-79.36,33.15,0.031,-0.79,1,0,0.025,-0.89,1,0,0.022,-1.11,0.94,0,0.117,-0.66,1,0,0.218,-0.77,0.839,0,0.028,-0.85,1,0,0.083,-0.8,1,0
03728,20090802,-79.36,33.15,0.034,-0.76,1,0,0.028,-0.86,1,0,0.03,-0.99,0.875,0,0.115,-0.66,1,0,0.207,-0.83,0.982,0,0.031,-0.82,1,0,0.083,-0.79,1,0
03728,20090803,-79.36,33.15,0.04,-0.69,0.905,0,0.033,-0.8,0.946,0,0.041,-0.84,0.78,0,0.113,-0.64,1,0,0.197,-0.88,1,0,0.037,-0.75,0.911,0,0.085,-0.76,1,0
03728,20090804,-79.36,33.15,0.049,-0.6,0.78,0,0.042,-0.71,0.845,0,0.055,-0.64,0.637,0.018,0.114,-0.59,0.97,0,0.189,-0.91,1,0,0.045,-0.66,0.792,0,0.09,-0.7,0.958,0
03728,20090805,-79.36,33.15,0.056,-0.52,0.708,0,0.05,-0.62,0.702,0,0.068,-0.47,0.494,0.018,0.12,-0.5,0.827,0,0.183,-0.94,1,0,0.053,-0.57,0.655,0,0.095,-0.63,0.958,0
03728,20090806,-79.36,33.15,0.06,-0.47,0.702,0,0.058,-0.53,0.565,0,0.079,-0.32,0.351,0.018,0.127,-0.41,0.685,0,0.178,-0.96,1,0,0.059,-0.5,0.649,0,0.1,-0.57,0.958,0
03728,20090807,-79.36,33.15,0.067,-0.4,0.619,0.006,0.068,-0.42,0.47,0,0.093,-0.14,0.208,0.036,0.135,-0.32,0.542,0,0.175,-0.97,1,0,0.067,-0.41,0.565,0.006,0.107,-0.49,0.875,0
03728,20090808,-79.36,33.15,0.071,-0.35,0.565,0.006,0.075,-0.34,0.327,0,0.1,-0.04,0.125,0.036,0.143,-0.24,0.399,0,0.177,-0.94,1,0,0.073,-0.35,0.429,0.006,0.113,-0.43,0.732,0
03728,20090809,-79.36,33.15,0.072,-0.34,0.565,0.006,0.08,-0.29,0.238,0,0.102,-0.02,0.048,0.036,0.15,-0.17,0.256,0,0.182,-0.9,0.929,0,0.076,-0.31,0.429,0.006,0.117,-0.38,0.702,0
03728,20090810,-79.36,33.15,0.069,-0.37,0.661,0.006,0.082,-0.28,0.292,0,0.101,-0.05,0.113,0.036,0.156,-0.11,0.113,0,0.188,-0.86,0.827,0,0.075,-0.32,0.518,0.006,0.119,-0.36,0.702,0
03728,20090811,-79.36,33.15,0.063,-0.44,0.786,0.006,0.079,-0.32,0.393,0,0.095,-0.12,0.256,0.018,0.16,-0.08,0,0,0.193,-0.83,0.821,0,0.071,-0.38,0.637,0.006,0.118,-0.37,0.744,0
03728,20090812,-79.36,33.15,0.058,-0.49,0.857,0.006,0.075,-0.37,0.536,0,0.091,-0.18,0.399,0.018,0.159,-0.08,0.06,0,0.198,-0.8,0.821,0,0.067,-0.43,0.774,0.006,0.116,-0.38,0.744,0
03728,20090813,-79.36,33.15,0.055,-0.51,0.863,0.006,0.071,-0.42,0.673,0,0.087,-0.23,0.542,0.018,0.157,-0.09,0.202,0,0.203,-0.77,0.821,0,0.063,-0.46,0.78,0.006,0.115,-0.39,0.744,0
03728,20090814,-79.36,33.15,0.053,-0.53,0.911,0,0.067,-0.46,0.768,0,0.084,-0.27,0.583,0,0.154,-0.11,0.345,0,0.206,-0.75,0.821,0,0.06,-0.49,0.863,0,0.113,-0.4,0.827,0
03728,20090815,-79.36,33.15,0.053,-0.52,0.899,0,0.065,-0.47,0.911,0,0.082,-0.28,0.595,0,0.152,-0.12,0.488,0,0.204,-0.76,0.821,0,0.059,-0.5,0.988,0,0.111,-0.41,0.97,0
03728,20090816,-79.36,33.15,0.054,-0.51,0.899,0,0.064,-0.48,1,0,0.081,-0.29,0.702,0,0.15,-0.14,0.631,0,0.2,-0.78,0.893,0,0.059,-0.49,0.988,0,0.11,-0.41,1,0
03728,20090817,-79.36,33.15,0.054,-0.49,0.899,0,0.063,-0.47,1,0,0.08,-0.29,0.732,0,0.148,-0.15,0.774,0,0.195,-0.8,0.994,0,0.059,-0.48,0.988,0,0.108,-0.42,1,0
03728,20090818,-79.36,33.15,0.055,-0.47,0.899,0,0.062,-0.46,1,0,0.079,-0.28,0.732,0,0.147,-0.16,0.917,0,0.191,-0.81,1,0,0.059,-0.46,0.988,0,0.107,-0.42,1,0
03728,20090819,-79.36,33.15,0.055,-0.45,0.899,0,0.062,-0.45,1,0,0.078,-0.27,0.732,0,0.145,-0.16,1,0,0.186,-0.83,1,0,0.059,-0.44,0.988,0,0.105,-0.42,1,0
03728,20090820,-79.36,33.15,0.055,-0.45,0.899,0,0.062,-0.43,1,0,0.076,-0.27,0.732,0,0.144,-0.17,1,0,0.182,-0.84,1,0,0.059,-0.43,0.988,0,0.104,-0.42,1,0
03728,20090821,-79.36,33.15,0.051,-0.48,0.935,0,0.058,-0.46,1,0,0.07,-0.32,0.833,0,0.143,-0.18,1,0,0.179,-0.85,1,0,0.054,-0.46,0.988,0,0.1,-0.44,1,0
03728,20090822,-79.36,33.15,0.051,-0.48,0.899,0,0.059,-0.44,0.887,0,0.072,-0.29,0.851,0.012,0.145,-0.16,0.905,0,0.176,-0.86,1,0,0.055,-0.45,0.887,0,0.101,-0.43,0.905,0
03728,20090823,-79.36,33.15,0.053,-0.45,0.815,0,0.061,-0.41,0.744,0,0.075,-0.26,0.744,0.012,0.148,-0.14,0.762,0,0.174,-0.86,1,0,0.057,-0.43,0.744,0,0.102,-0.42,0.839,0
03728,20090824,-79.36,33.15,0.055,-0.42,0.768,0,0.064,-0.39,0.601,0,0.078,-0.23,0.601,0.012,0.151,-0.13,0.619,0,0.173,-0.86,1,0,0.059,-0.4,0.601,0,0.104,-0.4,0.833,0
03728,20090825,-79.36,33.15,0.056,-0.4,0.768,0,0.066,-0.35,0.458,0,0.081,-0.2,0.458,0.012,0.153,-0.11,0.476,0,0.172,-0.86,1,0,0.061,-0.37,0.571,0,0.106,-0.39,0.833,0
03728,20090826,-79.36,33.15,0.057,-0.37,0.768,0,0.07,-0.31,0.315,0,0.084,-0.17,0.315,0.012,0.155,-0.1,0.333,0,0.172,-0.86,1,0,0.063,-0.33,0.571,0,0.108,-0.37,0.833,0
03728,20090827,-79.36,33.15,0.058,-0.34,0.768,0,0.073,-0.26,0.286,0,0.088,-0.14,0.173,0.012,0.158,-0.08,0.202,0,0.172,-0.86,1,0,0.066,-0.3,0.571,0,0.11,-0.35,0.833,0
03728,20090828,-79.36,33.15,0.059,-0.32,0.768,0,0.077,-0.22,0.286,0,0.093,-0.09,0.131,0.012,0.16,-0.07,0.137,0,0.172,-0.86,1,0,0.068,-0.26,0.571,0,0.112,-0.32,0.833,0
03728,20090829,-79.36,33.15,0.054,-0.36,0.869,0,0.074,-0.24,0.399,0,0.088,-0.12,0.244,0,0.158,-0.08,0.226,0,0.171,-0.86,1,0,0.064,-0.29,0.685,0,0.109,-0.34,0.929,0
03728,20090830,-79.36,33.15,0.049,-0.39,0.952,0,0.069,-0.28,0.542,0,0.083,-0.16,0.387,0,0.155,-0.09,0.369,0,0.17,-0.86,1,0,0.059,-0.32,0.827,0,0.106,-0.36,0.994,0
03728,20090831,-79.36,33.15,0.045,-0.42,1,0,0.064,-0.32,0.685,0,0.078,-0.2,0.53,0,0.153,-0.11,0.512,0,0.168,-0.87,1,0,0.055,-0.36,0.97,0,0.102,-0.39,1,0
03728,20090901,-79.36,33.15,0.048,-0.39,0.863,0,0.066,-0.31,0.696,0,0.082,-0.17,0.536,0,0.152,-0.11,0.583,0,0.166,-0.88,1,0,0.057,-0.34,0.863,0,0.103,-0.38,0.952,0
03728,20090902,-79.36,33.15,0.053,-0.35,0.72,0,0.069,-0.28,0.696,0,0.087,-0.14,0.536,0,0.153,-0.11,0.583,0,0.164,-0.89,1,0,0.061,-0.3,0.72,0,0.105,-0.37,0.81,0
03728,20090903,-79.36,33.15,0.058,-0.32,0.577,0,0.072,-0.26,0.583,0,0.09,-0.12,0.536,0,0.155,-0.1,0.571,0,0.163,-0.91,1,0,0.065,-0.27,0.577,0,0.107,-0.36,0.75,0
03728,20090904,-79.36,33.15,0.061,-0.29,0.536,0,0.075,-0.23,0.44,0,0.093,-0.1,0.435,0,0.156,-0.09,0.494,0,0.161,-0.91,1,0,0.068,-0.25,0.435,0,0.109,-0.34,0.75,0
03728,20090905,-79.36,33.15,0.063,-0.27,0.536,0,0.079,-0.2,0.298,0,0.095,-0.08,0.292,0,0.157,-0.09,0.357,0,0.16,-0.92,1,0,0.071,-0.22,0.292,0,0.111,-0.33,0.75,0
03728,20090906,-79.36,33.15,0.063,-0.26,0.536,0,0.082,-0.17,0.155,0,0.098,-0.06,0.149,0,0.159,-0.09,0.244,0,0.159,-0.93,1,0,0.073,-0.2,0.256,0,0.112,-0.32,0.75,0
03728,20090907,-79.36,33.15,0.067,-0.23,0.446,0,0.086,-0.13,0.012,0,0.101,-0.03,0.006,0,0.16,-0.08,0.238,0,0.158,-0.93,1,0,0.076,-0.16,0.167,0,0.114,-0.29,0.75,0
03728,20090908,-79.36,33.15,0.065,-0.23,0.44,0,0.085,-0.13,0,0,0.097,-0.05,0,0,0.16,-0.09,0.31,0,0.158,-0.94,1,0,0.075,-0.17,0.161,0,0.113,-0.3,0.738,0
03728,20090909,-79.36,33.15,0.062,-0.25,0.44,0,0.082,-0.15,0,0,0.093,-0.08,0,0,0.157,-0.1,0.452,0,0.157,-0.94,1,0,0.072,-0.19,0.161,0,0.11,-0.31,0.881,0
03728,20090910,-79.36,33.15,0.059,-0.27,0.542,0,0.08,-0.17,0,0,0.089,-0.1,0,0,0.155,-0.12,0.595,0,0.156,-0.95,1,0,0.069,-0.2,0.161,0,0.108,-0.33,0.94,0
03728,20090911,-79.36,33.15,0.056,-0.28,0.583,0,0.077,-0.19,0.012,0,0.086,-0.12,0,0,0.153,-0.13,0.738,0,0.155,-0.96,1,0,0.067,-0.22,0.256,0,0.105,-0.34,0.94,0
03728,20090912,-79.36,33.15,0.055,-0.29,0.583,0,0.074,-0.22,0.155,0,0.083,-0.14,0.071,0,0.152,-0.15,0.881,0,0.153,-0.97,1,0,0.064,-0.24,0.399,0,0.103,-0.35,0.94,0
03728,20090913,-79.36,33.15,0.053,-0.3,0.583,0,0.07,-0.25,0.298,0,0.08,-0.16,0.214,0,0.15,-0.16,0.994,0,0.152,-0.98,1,0,0.062,-0.26,0.435,0,0.101,-0.38,0.94,0
03728,20090914,-79.36,33.15,0.05,-0.33,0.673,0,0.066,-0.29,0.44,0,0.076,-0.18,0.357,0,0.149,-0.17,1,0,0.15,-0.99,1,0,0.058,-0.3,0.524,0,0.098,-0.4,0.94,0
03728,20090915,-79.36,33.15,0.045,-0.37,0.815,0,0.06,-0.35,0.583,0,0.071,-0.22,0.5,0,0.147,-0.19,1,0,0.149,-1,1,0,0.053,-0.34,0.667,0,0.094,-0.44,1,0
03728,20090916,-79.36,33.15,0.041,-0.4,0.958,0,0.054,-0.4,0.726,0,0.065,-0.26,0.643,0,0.146,-0.2,1,0,0.147,-1.01,1,0,0.048,-0.39,0.81,0,0.091,-0.47,1,0
03728,20090917,-79.36,33.15,0.038,-0.43,1,0,0.048,-0.46,0.869,0,0.059,-0.31,0.786,0,0.144,-0.22,1,0,0.146,-1.02,1,0,0.043,-0.43,0.952,0,0.087,-0.51,1,0
03728,20090918,-79.36,33.15,0.036,-0.46,1,0,0.043,-0.51,1,0,0.052,-0.35,0.929,0,0.142,-0.24,1,0,0.144,-1.03,1,0,0.04,-0.47,1,0,0.084,-0.54,1,0
03728,20090919,-79.36,33.15,0.034,-0.48,1,0,0.039,-0.55,1,0,0.047,-0.39,1,0,0.141,-0.26,1,0,0.143,-1.04,1,0,0.037,-0.5,1,0,0.081,-0.57,1,0
03728,20090920,-79.36,33.15,0.033,-0.5,1,0,0.036,-0.58,1,0,0.041,-0.42,1,0,0.139,-0.27,1,0,0.141,-1.05,1,0,0.034,-0.53,1,0,0.078,-0.59,1,0
03728,20090921,-79.36,33.15,0.032,-0.52,1,0,0.033,-0.6,1,0,0.037,-0.45,1,0,0.137,-0.29,1,0,0.14,-1.06,1,0,0.032,-0.55,1,0,0.076,-0.61,1,0
03728,20090922,-79.36,33.15,0.031,-0.53,1,0,0.031,-0.63,1,0,0.033,-0.48,1,0,0.136,-0.3,1,0,0.139,-1.06,1,0,0.031,-0.57,1,0,0.074,-0.62,1,0
03728,20090923,-79.36,33.15,0.03,-0.54,0.988,0,0.03,-0.64,0.994,0,0.031,-0.5,0.988,0,0.134,-0.32,1,0,0.138,-1.06,1,0,0.03,-0.58,0.994,0,0.073,-0.63,0.994,0
03728,20090924,-79.36,33.15,0.035,-0.52,0.964,0,0.037,-0.6,0.935,0,0.043,-0.44,0.845,0,0.135,-0.31,0.935,0,0.136,-1.06,1,0,0.036,-0.55,0.97,0,0.077,-0.61,0.994,0
03728,20090925,-79.36,33.15,0.039,-0.51,0.964,0,0.044,-0.56,0.935,0,0.053,-0.39,0.702,0,0.138,-0.3,0.792,0,0.135,-1.06,1,0,0.042,-0.53,0.97,0,0.082,-0.59,0.994,0